Regional Weather Roundup
Issued by NWS

Home | Current Version | Previous Version | Text Only | Print | Product List | Glossary On
Versions: 1 2 3 4 5 6 7 8 9 10 11 12 13 14 15 16 17 18 19 20 21 22 23 24 25 26 27 28 29 30 31 32 33 34 35 36 37 38 39 40 41 42 43 44 45 46 47 48 49 50
000
ASUS43 KLSX 300207
RWRMO

WEATHER SUMMARY FOR MISSOURI
NATIONAL WEATHER SERVICE SPRINGFIELD MO
900 PM CDT SUN MAR 29 2015

NOTE: "FAIR" INDICATES FEW OR NO CLOUDS BELOW 12,000 FEET WITH NO
       SIGNIFICANT WEATHER AND/OR OBSTRUCTIONS TO VISIBILITY.
       CURRENT SKY AND/OR WEATHER CONDITIONS ARE NOT AVAILABLE FOR
       CHILLICOTHE AND FARMINGTON.

MOZ001>031-035>038-043-044-053-054-300300-
...NORTHERN AND WESTERN MISSOURI...

CITY           SKY/WX    TMP DP  RH WIND       PRES   REMARKS
KANSAS CTY INT CLEAR     53  36  52 NW6       30.13R
KANSAS C DTWN  CLEAR     57  36  45 CALM      30.12R
LEE`S SUMMIT   CLEAR     53  37  54 N8        30.13R
ST JOSEPH      CLEAR     47  32  56 NW6       30.13R
CHILLICOTHE      N/A     53  35  50 W5        30.10R
KIRKSVILLE     CLEAR     49  36  61 W6        30.05R

$$
MOZ066>068-077>081-088>096-101>105-300300-
...SOUTHWEST MISSOURI...

CITY           SKY/WX    TMP DP  RH WIND       PRES   REMARKS
SPRINGFIELD    PTCLDY    49  41  74 S3        30.10R
JOPLIN         CLEAR     55  41  59 SW3       30.11R

$$
MOZ032>034-039>042-045>050-055>058-069>072-300300-
...CENTRAL MISSOURI...

CITY           SKY/WX    TMP DP  RH WIND       PRES   REMARKS
COLUMBIA       FAIR      55  42  61 NW16      30.07R
JEFFERSON CITY MOCLDY    56  42  59 NW8       30.07R
ROLLA          PTCLDY    45  38  76 SW9       30.05R
SEDALIA        CLEAR     55  41  59 NW13      30.11R
WHITEMAN AFB   CLEAR     54  40  58 N10       30.11R
WARRENSBURG    CLEAR     54  37  54 NW8       30.12R
OSAGE BEACH    PTCLDY    52  37  58 W5        30.08R

$$
MOZ051-052-059>065-300300-
...EAST CENTRAL MISSOURI...

CITY           SKY/WX    TMP DP  RH WIND       PRES   REMARKS
ST LOUIS INTL  MOCLDY    51  38  60 CALM      30.02R
SPIRIT OF STL  MOCLDY    45  38  76 CALM      30.02R
ST CHARLES     PTCLDY    49  37  63 W7        30.01R

$$
MOZ072>076-082>087-097>100-106>115-300300-
...SOUTH CENTRAL AND SOUTHEAST MISSOURI...

CITY           SKY/WX    TMP DP  RH WIND       PRES   REMARKS
CAPE GIRARDEAU CLOUDY    53  47  79 W10       30.08R
FARMINGTON     MOCLDY    54  39  58 W3        30.08R
POPLAR BLUFF   CLOUDY    55  47  74 CALM      30.07R
WEST PLAINS    CLOUDY    56  41  57 NW3       30.09R

$$


USA.gov is the U.S. government's official web portal to all federal, state and local government web resources and services.